DW9699 Haslev DK current weather conditions

sailwx.info

Wind from 291 at 1 knots gusting 3

Air temperature 28.3° C
Dewpoint -6.2° C

Last reported at 2019-Jun-18 11:15 UTC.
Time now 2019-Jun-19 14:47 UTC

Location: N 55°22' E 011°58'.
View on Google Maps.

See reports from other nearby stations

  
Tides and Currents Weather Stations Pressure Air Temp Water Temp Dewpoint Dewpoint Depression Visibility Wind Speed Wind Dir Waves Ship Positions
date/time (UTC)wind fromknots sea level pressurealtimeterstation pressurevisibilityair tempwater tempwave heightnotes
2019-Jun-18 11:15 291 1 gusting 3 28.3
2019-Jun-18 11:10 280 0 gusting 2 28.3
2019-Jun-18 10:50 265 0 gusting 3 27.8
2019-Jun-18 10:45 252 0 gusting 3 27.8
2019-Jun-18 10:40 264 0 gusting 3 27.2
2019-Jun-18 10:35 271 1 gusting 4 27.2
2019-Jun-18 10:30 266 0 gusting 5 27.2
2019-Jun-18 10:20 290 1 gusting 6 27.2
2019-Jun-18 10:00 269 1 gusting 4 27.2
2019-Jun-18 09:55 290 0 gusting 4 27.2
2019-Jun-18 09:50 280 1 gusting 5 26.7
2019-Jun-18 09:45 283 1 gusting 5 26.7
2019-Jun-18 09:20 269 1 gusting 4 25.6
2019-Jun-18 09:15 271 0 gusting 4 25.6
2019-Jun-18 09:10 288 0 gusting 4 25.0
2019-Jun-18 08:45 268 1 gusting 6 25.6
2019-Jun-18 08:40 277 2 gusting 6 25.6
2019-Jun-18 08:35 284 0 gusting 6 25.6
2019-Jun-18 08:30 280 1 gusting 6 25.6
2019-Jun-18 08:20 267 2 gusting 7 25.6
2019-Jun-18 08:15 247 1 gusting 7 25.6
2019-Jun-18 08:00 285 1 gusting 4 25.0
2019-Jun-18 07:55 289 1 gusting 6 25.0
2019-Jun-18 07:45 285 2 gusting 9 24.4
2019-Jun-18 07:30 288 1 gusting 5 23.3
2019-Jun-18 07:05 280 1 gusting 3 21.7
2019-Jun-18 07:00 246 1 gusting 5 20.6
2019-Jun-18 06:55 235 1 gusting 5 20.6
2019-Jun-18 06:50 279 1 gusting 3 20.6
2019-Jun-18 06:40 272 1 gusting 4 21.1
2019-Jun-18 06:35 254 1 gusting 5 21.7
2019-Jun-18 06:30 273 1 gusting 5 21.1
2019-Jun-18 06:25 281 1 gusting 3 21.1
2019-Jun-18 06:15 260 1 gusting 5 21.1
2019-Jun-18 05:55 285 1 gusting 6 19.4
2019-Jun-18 05:45 277 1 gusting 5 19.4
2019-Jun-18 05:40 278 1 gusting 5 19.4
2019-Jun-18 05:35 270 1 gusting 3 18.9
2019-Jun-18 05:30 269 1 gusting 3 18.3
2019-Jun-18 05:20 249 1 gusting 3 18.3
2019-Jun-18 05:15 277 1 gusting 3 17.8
2019-Jun-18 05:00 293 1 gusting 3 17.2
2019-Jun-18 04:50 296 1 gusting 3 17.8
2019-Jun-18 04:40 251 1 gusting 3 17.2
2019-Jun-18 04:30 258 1 gusting 3 17.2
2019-Jun-18 04:25 251 1 gusting 3 17.2
2019-Jun-18 04:20 250 1 gusting 3 17.2
2019-Jun-18 04:15 251 0 gusting 3 16.7
2019-Jun-18 04:05 261 0 gusting 3 16.1
2019-Jun-18 03:55 273 0 gusting 3 15.6
2019-Jun-18 03:50 252 1 gusting 3 15.6
2019-Jun-18 03:40 267 1 gusting 2 15.6
2019-Jun-18 03:35 263 0 gusting 2 15.0
2019-Jun-18 03:30 268 0 gusting 2 15.0
2019-Jun-18 03:25 260 0 gusting 2 15.0
2019-Jun-18 03:20 256 0 gusting 2 15.0
2019-Jun-18 03:00 268 0 gusting 3 15.0
2019-Jun-18 02:55 259 0 gusting 3 14.4
2019-Jun-18 02:45 249 0 gusting 1 14.4
2019-Jun-18 02:40 254 0 gusting 2 14.4
2019-Jun-18 02:35 252 0 gusting 2 14.4
2019-Jun-18 02:30 259 0 gusting 1 14.4
2019-Jun-18 02:25 270 0 gusting 1 14.4
2019-Jun-18 02:20 257 0 gusting 1 14.4
2019-Jun-18 02:05 243 0 gusting 1 14.4
2019-Jun-18 01:55 259 0 gusting 1 14.4
2019-Jun-18 01:50 248 0 gusting 1 14.4
2019-Jun-18 01:45 256 14.4
2019-Jun-18 01:30 244 0 gusting 1 14.4
2019-Jun-18 01:15 257 0 gusting 1 14.4
2019-Jun-18 01:05 228 15.0
2019-Jun-18 00:45 253 15.0
2019-Jun-18 00:40 270 15.0
2019-Jun-18 00:25 236 15.6
2019-Jun-18 00:15 262 15.6
2019-Jun-18 00:05 255 0 gusting 1 15.6
2019-Jun-17 23:40 253 0 gusting 1 15.6
2019-Jun-17 23:35 251 15.6
2019-Jun-17 23:30 251 15.6
2019-Jun-17 23:25 259 15.6
2019-Jun-17 23:20 261 15.6
2019-Jun-17 23:10 234 15.6
2019-Jun-17 22:55 262 16.1
2019-Jun-17 22:40 261 16.1
2019-Jun-17 22:35 258 0 gusting 1 16.1
2019-Jun-17 22:30 244 16.1
2019-Jun-17 22:25 232 16.1
2019-Jun-17 22:15 232 16.1
2019-Jun-17 22:10 225 16.1
2019-Jun-17 22:00 225 16.1
2019-Jun-17 21:50 225 16.7
2019-Jun-17 21:45 225 16.7
2019-Jun-17 21:30 314 16.7
2019-Jun-17 21:25 314 16.7
2019-Jun-17 21:20 314 16.7
2019-Jun-17 21:15 16.7
2019-Jun-17 21:10 314 17.2
2019-Jun-17 21:05 314 17.2
2019-Jun-17 21:00 314 17.2
2019-Jun-17 20:50 314 17.8
2019-Jun-17 20:45 314 17.8
2019-Jun-17 20:40 314 17.8
2019-Jun-17 20:35 18.3
2019-Jun-17 20:30 18.3
2019-Jun-17 20:20 314 18.9
2019-Jun-17 19:55 20.0
2019-Jun-17 19:50 20.6
2019-Jun-17 19:30 314 22.2
2019-Jun-17 19:20 279 22.8
2019-Jun-17 19:00 266 25.6
2019-Jun-17 18:40 256 27.2
2019-Jun-17 18:30 135 27.8
2019-Jun-17 18:25 144 28.3